#timestamp,LO_Frequency,Hit,StdDev 
1708804815.3,286046995.7,N
1708804835.1,286046999.2,N
1708804855.9,286047000.0,N
1708804875.7,286047000.6,N
1708804895.5,286046999.4,N
1708804915.4,286046996.9,N
1708804935.2,286046998.4,N
1708804955.1,286047000.0,N
1708804956.0,286047000.0,N
1708804975.8,286047002.4,N
1708804995.6,286047001.0,N
1708805015.5,286047000.9,N
1708805035.3,286047000.2,N
1708805055.1,286047000.7,N
1708805075.9,286046998.4,N
1708805095.7,286047002.5,N
1708805115.6,286047000.1,N
1708805135.4,286047002.5,N
1708805155.2,286047002.2,N
1708805175.1,286047000.2,N
1708805176.0,286047000.2,N
1708805195.8,286047000.0,N
1708805215.7,286047000.6,N
1708805235.5,286047000.1,N
1708805255.3,286047004.0,N
1708805275.2,286047002.9,N
1708805295.9,286047003.1,N
1708805315.7,286047004.8,N
1708805335.6,286047005.8,N
1708805355.4,286047004.7,N
1708805375.2,286047003.9,N
1708805395.1,286047002.1,N
1708805396.0,286047002.1,N
1708805415.8,286047003.8,N
1708805435.7,286047006.6,Y
1708805455.5,286047005.7,P
1708805475.3,286047004.0,N
1708805495.2,286047005.6,P
1708805515.9,286047006.4,Y
1708805535.7,286047002.5,P
1708805555.6,286047000.6,N
1708805575.4,286047000.4,N
1708805595.2,286047001.1,N
1708805615.1,286047000.6,N
1708805616.0,286047000.6,N
1708805635.8,286047002.6,N
1708805655.7,286047001.8,N
1708805675.5,286047000.8,N
1708805695.3,286047000.5,N
1708805715.2,286047005.5,Y
1708805735.0,286047001.8,P
1708805735.9,286047001.8,P
1708805755.8,286047002.4,P
1708805775.6,286047001.8,Y
1708805795.4,286046997.7,P
1708805815.3,286046999.6,N
1708805835.1,286046997.6,N
1708805855.9,286046996.2,N
1708805875.7,286046997.6,N
1708805895.5,286046997.2,N
1708805915.4,286046995.1,N
1708805935.2,286046993.5,Y
1708805955.0,286046995.4,P
1708805955.9,286046995.4,P
1708805975.8,286046997.4,N
1708805995.6,286046997.4,N
1708806015.5,286046997.7,N
1708806035.3,286046997.3,N
1708806055.1,286046995.0,Y
1708806075.9,286047000.4,P
1708806095.7,286047002.2,N
1708806115.5,286047002.6,N
1708806135.4,286047000.2,N
1708806155.2,286047002.3,N
1708806175.1,286047003.6,N
1708806176.0,286047003.6,N
1708806195.8,286047004.8,N
1708806215.6,286047006.3,N
1708806235.5,286047006.7,N
1708806255.3,286047005.3,N
1708806275.1,286047003.0,N
1708806295.9,286047003.9,N
1708806315.7,286047001.5,N
1708806335.6,286047004.5,N
1708806355.4,286047003.0,N
1708806375.2,286047001.9,N
1708806395.1,286047001.9,N
1708806396.0,286047001.9,N
1708806415.8,286047001.5,N
1708806435.7,286047000.4,N
1708806455.5,286047002.2,N
1708806475.3,286047001.4,N
1708806495.2,286047002.9,N
1708806515.9,286047007.3,Y
1708806535.7,286047005.2,P
1708806555.6,286047004.5,P
1708806575.4,286047007.1,P
1708806595.3,286047004.6,N
1708806615.1,286047001.3,N
1708806635.8,286047004.0,N
1708806655.7,286047004.4,N
1708806675.5,286046999.8,N
1708806695.4,286047001.1,N
1708806715.2,286047004.3,N
1708806735.0,286047002.3,N
1708806735.9,286047002.3,N
1708806755.8,286047000.5,N
1708806775.6,286047002.4,N
1708806795.4,286047000.0,N
1708806815.3,286047000.2,N
1708806835.1,286047001.6,N
1708806855.8,286047001.3,N
1708806875.7,286047002.5,N
1708806895.5,286047003.0,N
1708806915.3,286047004.1,N
1708806935.2,286047003.2,N
1708806955.0,286047002.8,N
1708806955.9,286047002.8,N
1708806975.8,286046998.8,N
1708806995.6,286046994.9,N
1708807015.4,286047000.5,N
1708807035.3,286047003.6,N
1708807055.1,286047001.0,N
1708807075.9,286047002.1,N
1708807095.7,286046999.8,N
1708807115.5,286047004.4,N
1708807135.4,286047001.4,N
1708807155.2,286047001.7,N
1708807175.1,286046998.5,N
1708807176.0,286046998.5,N
1708807195.8,286047002.3,N
1708807215.6,286047004.3,N
1708807235.5,286047004.2,N
1708807255.3,286047005.4,N
1708807275.2,286047003.6,N
1708807295.9,286047002.2,N
1708807315.7,286047002.7,N
1708807335.6,286047001.7,N
1708807355.4,286047001.4,N
1708807375.3,286047003.7,N
1708807395.1,286047003.2,N
1708807396.0,286047003.2,N
1708807415.8,286047005.2,N
1708807435.7,286047005.3,N
1708807455.5,286047007.3,Y
1708807475.4,286047003.3,P
1708807495.2,286047003.9,P
1708807515.0,286047002.6,P
1708807516.0,286047002.6,Y
1708807535.8,286046997.7,P
1708807555.6,286046995.9,N
1708807575.5,286046996.3,N
1708807595.3,286046997.8,N
1708807615.2,286046999.4,N
1708807635.9,286046998.6,N
1708807655.7,286046997.0,N
1708807675.6,286046995.8,N
1708807695.4,286046995.0,N
1708807715.2,286046994.9,N
1708807735.1,286047000.7,N
1708807736.0,286047000.7,N
1708807755.8,286046998.5,N
1708807775.7,286046996.7,N
1708807795.5,286047000.7,N
1708807815.3,286047000.1,N
1708807835.2,286047002.5,N
1708807855.9,286047004.1,N
1708807875.7,286047002.3,N
1708807895.6,286047004.3,N
1708807915.4,286047002.2,N
1708807935.2,286047001.9,N
1708807955.1,286047000.0,N
1708807956.0,286047000.0,N
1708807975.8,286047004.3,N
1708807995.7,286046999.9,N
1708808015.5,286047001.2,N
1708808035.3,286046999.5,N
1708808055.2,286046995.0,N
1708808075.9,286046996.3,N
1708808095.7,286046995.7,N
1708808115.6,286046995.4,N
1708808135.4,286046994.5,N
1708808155.2,286046994.6,N
1708808175.1,286046993.8,N
1708808176.0,286046993.8,N
1708808195.8,286046999.1,N
1708808215.7,286046999.2,N
1708808235.5,286046995.9,N
1708808255.3,286046999.6,N
1708808275.2,286046999.3,N
1708808295.0,286046997.6,N
1708808295.9,286046997.6,N
1708808315.7,286046997.2,N
1708808335.6,286046997.2,N
1708808355.4,286046999.5,N
1708808375.3,286046993.7,N
1708808395.1,286046994.0,N
1708808396.0,286046994.0,N
